Location: Wildcat Hills Observatory
(41.6350°N, 103.6812°W)
Time: 22:19:29
(UTC-06:00)

Cosmos 1634 Rocket - Visible Passes

Search period start: 30 August 2016 00:00
Search period end: 09 September 2016 00:00
Orbit: 960 x 992 km, 82.9° (Epoch: 30 August)

Date Brightness Start Highest point End Pass type
(mag) Time Alt. Az. Time Alt. Az. Time Alt. Az.
30 Aug 5.4 00:56:45 32° NNW 00:56:45 32° NNW 01:00:23 10° N visible
30 Aug 5.5 23:37:30 28° NE 23:37:30 28° NE 23:40:33 10° NNE visible
31 Aug 5.8 01:22:11 23° NW 01:22:11 23° NW 01:25:26 10° NNW visible
01 Sep 5.3 00:02:56 35° N 00:02:56 35° N 00:06:21 10° N visible
01 Sep 6.2 01:47:36 14° NW 01:47:36 14° NW 01:49:46 10° NNW visible
01 Sep 5.9 22:43:41 16° NE 22:43:41 16° NE 22:45:28 10° NE visible
02 Sep 5.5 00:28:21 33° NNW 00:28:21 33° NNW 00:31:50 10° N visible
02 Sep 5.6 23:09:06 25° NE 23:09:06 25° NE 23:11:49 10° NNE visible
03 Sep 5.8 00:53:45 25° NW 00:53:45 25° NW 00:56:59 10° NNW visible
03 Sep 5.4 23:34:30 32° NNE 23:34:30 32° NNE 23:37:42 10° N visible
04 Sep 6.2 01:19:10 16° NW 01:19:10 16° NW 01:21:34 10° NNW visible
04 Sep 6.0 22:15:13 14° NE 22:15:13 14° NE 22:16:33 10° NE visible
04 Sep 5.4 23:59:53 33° N 23:59:53 33° N 00:03:17 10° N visible
05 Sep 5.7 22:40:35 22° NE 22:40:35 22° NE 22:43:04 10° NNE visible
06 Sep 5.8 00:25:16 26° NNW 00:25:16 26° NNW 00:28:30 10° N visible
06 Sep 5.4 23:05:57 30° NNE 23:05:57 30° NNE 23:09:03 10° NNE visible
07 Sep 6.2 00:50:37 18° NW 00:50:37 18° NW 00:53:16 10° NNW visible
07 Sep 6.0 21:46:38 12° NE 21:46:38 12° NE 21:47:31 10° NE visible
07 Sep 5.4 23:31:19 34° N 23:31:19 34° N 23:34:41 10° N visible
08 Sep 6.6 01:15:59 10° NW 01:15:59 10° NW 01:16:28 10° NW visible
08 Sep 5.7 22:11:59 20° NE 22:11:59 20° NE 22:14:16 10° NNE visible
